Find STARLINK-37950

NORAD ID: 799500990 Int'l Des: 2026-135Q Constellation: starlink operational

当前视图

正在加载3D地球...

About STARLINK-37950

STARLINK-37950 (NORAD 799500990) is a starlink constellation satellite launched Jun 8, 2026

关于 STARLINK-37950

正在加载描述...

即将过境

Passes for default location (London). Set your location on the main map for personalized predictions.

高度历史

Loading altitude history...

两行轨道根数

1 99999C 2026135Q 26167.14770832 .00416080 00000-0 640950-4 0 1672
2 99999 97.2791 193.9596 0010726 263.4419 220.7837 16.03944635 10
Epoch: Jun 16, 2026 • Age: 3 hours